Weather History for Moultrie, GA

Change the Weather History Date:

Wednesday, February 13, 2013

  Actual Average (KMUL) Record (KMUL)
Temperature  
Mean Temperature 62 °F -  
Max Temperature 73 °F 63 °F 83 °F (1962)
Min Temperature 51 °F 39 °F 23 °F (1955)
Degree Days  
Heating Degree Days 3    
Growing Degree Days 12 (Base 50)    
Moisture  
Dew Point 58 °F    
Average Humidity 76    
Maximum Humidity 100    
Minimum Humidity 40    
Precipitation  
Precipitation 0.00 in - - ()
Sea Level Pressure  
Sea Level Pressure 29.87 in    
Wind  
Wind Speed 10 mph (West)    
Max Wind Speed 15 mph    
Max Gust Speed 24 mph    
Visibility 9 miles    
Events Rain , Thunderstorm    
Averages and records for this station are not official NWS values.
T = Trace of Precipitation, MM = Missing Value Source: NWS Daily Summary

Daily Weather History Graph

Daily Weather History Graph

Search for Another Location

Airport:

Trip Planner

Search our weather history database for the weather conditions in past years. The results will help you decide how hot, cold, wet, or windy it might be!

Date:

Astronomy

Feb. 13, 2013 Rise Set
Actual Time 7:17 AM EST 6:21 PM EST
Civil Twilight 6:53 AM EST 6:46 PM EST
Nautical Twilight 6:24 AM EST 7:14 PM EST
Astronomical Twilight 5:56 AM EST 7:42 PM EST
Moon 9:04 AM EST (2/13) 10:02 PM EST (2/13)
Length of Visible Light 11h 53m
Length of Day
11h 03m
Waxing Crescent, 13% of the Moon is Illuminated
Feb 13
Waxing Crescent
Feb 17
First Quarter
Feb 25
Full
Mar 4
Last Quarter
Mar 11
New

Hourly Weather History & Observations

Time (EST) Temp. Dew Point Humidity Pressure Visibility Wind Dir Wind Speed Gust Speed Precip Events Conditions
12:15 AM 73.4 °F 69.8 °F 88% 29.81 in 10.0 mi SSW 11.5 mph - N/A   Overcast
12:35 AM 73.4 °F 69.8 °F 88% 29.81 in 7.0 mi SSW 10.4 mph 17.3 mph N/A Rain Light Rain
12:55 AM 73.4 °F 69.8 °F 88% 29.80 in 10.0 mi SW 10.4 mph 18.4 mph N/A   Overcast
1:15 AM 73.4 °F 69.8 °F 88% 29.80 in 10.0 mi SW 11.5 mph 18.4 mph N/A Thunderstorm Overcast
1:35 AM 73.4 °F 69.8 °F 88% 29.79 in 7.0 mi SW 9.2 mph 19.6 mph N/A Thunderstorm Overcast
1:55 AM 73.4 °F 69.8 °F 88% 29.79 in 7.0 mi SSW 9.2 mph 18.4 mph N/A Rain , Thunderstorm Rain
2:15 AM 73.4 °F 69.8 °F 88% 29.80 in 7.0 mi SW 13.8 mph 23.0 mph N/A   Light Drizzle
2:35 AM 73.4 °F 69.8 °F 88% 29.80 in 7.0 mi SW 11.5 mph 18.4 mph N/A   Drizzle
2:55 AM 71.6 °F 69.8 °F 94% 29.79 in 7.0 mi SW 12.7 mph 17.3 mph N/A Thunderstorm Overcast
3:15 AM 71.6 °F 69.8 °F 94% 29.78 in 7.0 mi SW 10.4 mph - N/A Thunderstorm Drizzle
3:35 AM 71.6 °F 69.8 °F 94% 29.79 in 7.0 mi SW 8.1 mph 18.4 mph N/A Thunderstorm Thunderstorm
3:55 AM 71.6 °F 69.8 °F 94% 29.78 in 10.0 mi SW 10.4 mph - N/A Thunderstorm Thunderstorm
4:15 AM 71.6 °F 69.8 °F 94% 29.77 in 10.0 mi SSW 9.2 mph - N/A Thunderstorm Overcast
4:35 AM 71.6 °F 69.8 °F 94% 29.78 in 7.0 mi SW 12.7 mph 18.4 mph N/A Rain , Thunderstorm Rain
4:55 AM 71.6 °F 69.8 °F 94% 29.78 in 7.0 mi SW 11.5 mph 16.1 mph N/A Thunderstorm Overcast
5:15 AM 71.6 °F 69.8 °F 94% 29.78 in 7.0 mi SW 10.4 mph 17.3 mph N/A Thunderstorm Overcast
5:35 AM 71.6 °F 69.8 °F 94% 29.78 in 7.0 mi SW 10.4 mph - N/A   Overcast
5:55 AM 71.6 °F 69.8 °F 94% 29.79 in 7.0 mi SW 9.2 mph - N/A   Overcast
6:15 AM 71.6 °F 69.8 °F 94% 29.80 in 7.0 mi SW 9.2 mph - N/A   Overcast
6:35 AM 71.6 °F 69.8 °F 94% 29.80 in 7.0 mi SW 10.4 mph - N/A   Light Drizzle
6:55 AM 71.6 °F 69.8 °F 94% 29.81 in 7.0 mi WSW 9.2 mph - N/A   Overcast
7:15 AM 71.6 °F 69.8 °F 94% 29.81 in 7.0 mi WSW 8.1 mph - N/A   Overcast
7:35 AM 71.6 °F 69.8 °F 94% 29.83 in 5.0 mi WSW 8.1 mph - N/A   Mostly Cloudy
7:55 AM 71.6 °F 69.8 °F 94% 29.83 in 5.0 mi WSW 5.8 mph - N/A   Mostly Cloudy
8:15 AM 71.6 °F 69.8 °F 94% 29.84 in 7.0 mi WSW 10.4 mph - N/A   Mostly Cloudy
8:35 AM 71.6 °F 68.0 °F 88% 29.85 in 7.0 mi WSW 10.4 mph 16.1 mph N/A   Scattered Clouds
8:55 AM 71.6 °F 68.0 °F 88% 29.85 in 7.0 mi WSW 10.4 mph - N/A   Clear
9:15 AM 73.4 °F 68.0 °F 83% 29.87 in 7.0 mi WSW 11.5 mph - N/A   Scattered Clouds
9:35 AM 73.4 °F 66.2 °F 78% 29.87 in 7.0 mi West 13.8 mph 24.2 mph N/A   Mostly Cloudy
9:55 AM 73.4 °F 66.2 °F 78% 29.88 in 7.0 mi West 11.5 mph 17.3 mph N/A   Scattered Clouds
10:15 AM 71.6 °F 66.2 °F 83% 29.88 in 7.0 mi WNW 10.4 mph 17.3 mph N/A   Scattered Clouds
10:35 AM 69.8 °F 62.6 °F 78% 29.89 in 10.0 mi West 10.4 mph 16.1 mph N/A   Scattered Clouds
10:55 AM 69.8 °F 59.0 °F 68% 29.89 in 10.0 mi WNW 8.1 mph 16.1 mph N/A   Clear
11:15 AM 69.8 °F 55.4 °F 60% 29.89 in 10.0 mi WNW 15.0 mph - N/A   Clear
11:35 AM 69.8 °F 53.6 °F 56% 29.89 in 10.0 mi WNW 9.2 mph - N/A   Clear
11:55 AM 69.8 °F 51.8 °F 53% 29.89 in 10.0 mi West 12.7 mph 18.4 mph N/A   Clear
12:15 PM 69.8 °F 48.2 °F 46% 29.87 in 10.0 mi West 9.2 mph 16.1 mph N/A   Scattered Clouds
12:35 PM 71.6 °F 46.4 °F 41% 29.85 in 10.0 mi WSW 10.4 mph - N/A   Clear
12:55 PM 71.6 °F 48.2 °F 43% 29.84 in 10.0 mi West 8.1 mph - N/A   Clear
1:15 PM 71.6 °F 48.2 °F 43% 29.84 in 10.0 mi West 8.1 mph - N/A   Scattered Clouds
1:35 PM 71.6 °F 46.4 °F 41% 29.84 in 10.0 mi West 12.7 mph 18.4 mph N/A   Scattered Clouds
1:55 PM 71.6 °F 48.2 °F 43% 29.83 in 10.0 mi West 6.9 mph - N/A   Mostly Cloudy
2:15 PM 71.6 °F 46.4 °F 41% 29.83 in 10.0 mi West 10.4 mph - N/A   Mostly Cloudy
2:35 PM 71.6 °F 46.4 °F 41% 29.84 in 10.0 mi West 9.2 mph 17.3 mph N/A   Mostly Cloudy
2:55 PM 69.8 °F 46.4 °F 43% 29.85 in 10.0 mi WSW 10.4 mph 16.1 mph N/A   Mostly Cloudy
3:15 PM 69.8 °F 44.6 °F 40% 29.85 in 10.0 mi West 10.4 mph 21.9 mph N/A   Mostly Cloudy
3:35 PM 68.0 °F 46.4 °F 46% 29.87 in 10.0 mi West 10.4 mph - N/A   Overcast
3:55 PM 68.0 °F 46.4 °F 46% 29.87 in 10.0 mi West 5.8 mph - N/A   Overcast
4:15 PM 68.0 °F 44.6 °F 43% 29.88 in 10.0 mi West 11.5 mph 18.4 mph N/A   Overcast
4:35 PM 68.0 °F 44.6 °F 43% 29.89 in 10.0 mi West 8.1 mph 20.7 mph N/A   Overcast
4:55 PM 66.2 °F 44.6 °F 46% 29.89 in 10.0 mi West 9.2 mph 16.1 mph N/A   Overcast
5:15 PM 64.4 °F 46.4 °F 52% 29.88 in 10.0 mi WNW 9.2 mph 17.3 mph N/A   Overcast
5:35 PM 64.4 °F 46.4 °F 52% 29.88 in 10.0 mi West 10.4 mph 18.4 mph N/A   Overcast
5:55 PM 64.4 °F 48.2 °F 56% 29.89 in 10.0 mi West 6.9 mph 16.1 mph N/A   Overcast
6:15 PM 64.4 °F 48.2 °F 56% 29.90 in 10.0 mi WNW 6.9 mph - N/A   Overcast
6:35 PM 62.6 °F 50.0 °F 63% 29.90 in 10.0 mi WNW 9.2 mph 16.1 mph N/A   Overcast
6:55 PM 60.8 °F 51.8 °F 72% 29.90 in 10.0 mi WNW 6.9 mph - N/A   Light Drizzle
7:15 PM 59.0 °F 51.8 °F 77% 29.94 in 10.0 mi WNW 9.2 mph - N/A Rain Light Rain
7:35 PM 55.4 °F 51.8 °F 88% 29.94 in 7.0 mi WNW 11.5 mph - N/A Rain Rain
7:55 PM 55.4 °F 51.8 °F 88% 29.94 in 7.0 mi West 8.1 mph - N/A Rain Rain
8:15 PM 53.6 °F 53.6 °F 100% 29.96 in 7.0 mi WNW 8.1 mph - N/A Rain Light Rain
8:35 PM 53.6 °F 53.6 °F 100% 29.96 in 10.0 mi WNW 12.7 mph 18.4 mph N/A Rain Light Rain
8:55 PM 51.8 °F 50.0 °F 94% 29.99 in 10.0 mi NW 8.1 mph - N/A Rain Light Rain
9:15 PM 51.8 °F 50.0 °F 94% 29.96 in 10.0 mi NNW 5.8 mph - N/A Rain Rain
9:35 PM 51.8 °F 50.0 °F 94% 29.98 in 10.0 mi NW 9.2 mph - N/A   Overcast
9:55 PM 51.8 °F 48.2 °F 88% 29.96 in 10.0 mi NW 6.9 mph - N/A   Overcast
10:15 PM 51.8 °F 48.2 °F 88% 29.97 in 10.0 mi NNW 4.6 mph - N/A   Overcast
10:35 PM 51.8 °F 48.2 °F 88% 29.96 in 10.0 mi NNW 4.6 mph - N/A   Overcast
10:55 PM 51.8 °F 48.2 °F 88% 29.98 in 10.0 mi Calm Calm - N/A   Overcast
11:15 PM 51.8 °F 46.4 °F 82% 30.00 in 10.0 mi WNW 4.6 mph - N/A   Mostly Cloudy
11:35 PM 51.8 °F 48.2 °F 88% 30.02 in 10.0 mi West 5.8 mph - N/A   Overcast
11:55 PM 51.8 °F 48.2 °F 88% 30.03 in 10.0 mi West 5.8 mph - N/A   Overcast